Location: Harrisburg
(40.2740°N, 76.8850°W)
Time: 21:23:05
(UTC-05:00)

Tiangong 2 - Visible Passes

Search period start: 10 December 2017 00:00
Search period end: 20 December 2017 00:00
Orbit: 386 x 390 km, 42.8° (Epoch: 09 December)

Date Brightness Start Highest point End Pass type
(mag) Time Alt. Az. Time Alt. Az. Time Alt. Az.
10 Dec 2.5 05:41:31 26° SSW 05:41:31 26° SSW 05:44:12 10° SSE visible
11 Dec 4.4 04:46:05 11° SE 04:46:05 11° SE 04:46:17 10° SE visible
12 Dec 3.9 05:23:00 11° S 05:23:00 11° S 05:23:10 10° S visible
